154P/Brewington (2024)

Japanese version
Home page
Updated on March 26, 2025

---------------------------------------------------------------------

* Profile

* Pictures

* Orbital Elements

Epoch 2025 May 5.0 TT = JDT 2460800.5
T 2024 June 13.22374 TT                                 Pike
q   1.5525494            (2000.0)            P               Q
n   0.09383322     Peri.   47.93555     +0.84757308     -0.52322941
a   4.7962113      Node   342.99641     +0.35150913     +0.67861760
e   0.6762967      Incl.   17.63752     +0.39756912     +0.51546983
P  10.5
From 2832 observations 2013 July 6-2025 Feb. 26, mean residual 0".7.
     Nongravitational parameters A1 = +1.53, A2 = +0.3758.

* Finding Charts

* Magnitudes Graph

        m1 =  0.0 + 5 log d + 50   log r  [   ,115]  (             - 2024 Oct.  6)
        m1 = 10.5 + 5 log d + 15.0 log r  [115,   ]  (2024 Oct.  6 -             )

---------------------------------------------------------------------

The orbital elements are published on M.P.E.C. 2025-D254.
The charts are made with StellaNavigator Ver.10 (AstroArts).
The magnitudes graphs are made with Comet for Windows.

---------------------------------------------------------------------

Copyright(C) Seiichi Yoshida (comet@aerith.net). All rights reserved.